Joplin, MO

4:47 AM CST on December 16, 2019 (GMT -0600)
Joplin Regional

Weather History for KJLN - September, 2019

Change the Weather History Date:

Monday, September 2, 2019

  Actual Average Record
Temperature  
Mean Temperature 78 °F 76 °F  
Max Temperature 91 °F 88 °F 105 °F (2000)
Min Temperature 65 °F 65 °F 48 °F (1974)
Degree Days  
Heating Degree Days 0 0  
Month to date heating degree days 0 0  
Since 1 July heating degree days 0 1  
Cooling Degree Days 13 11  
Month to date cooling degree days 24 23  
Year to date cooling degree days 1275 1450  
Growing Degree Days 28 (Base 50)    
Moisture  
Dew Point 70 °F    
Average Humidity 80    
Maximum Humidity 100    
Minimum Humidity 54    
Precipitation  
Precipitation 0.00 in 0.16 in 1.50 in (1993)
Month to date precipitation 0.00 0.32  
Year to date precipitation 48.89 31.29  
Sea Level Pressure  
Sea Level Pressure 30.06 in    
Wind  
Wind Speed 1 mph ()    
Max Wind Speed 7 mph    
Max Gust Speed 10 mph    
Visibility 9.4 miles    
Events      
T = Trace of Precipitation, MM = Missing Value Source: Averaged Metar Reports

Daily Weather History Graph

Daily Weather History Graph

Search for Another Location

Airport or City:

Astronomy

Sep. 02, 2019 Rise Set
Actual Time 6:49 AM CDT 7:45 PM CDT
Civil Twilight 6:22 AM CDT 8:11 PM CDT
Nautical Twilight 5:51 AM CDT 8:43 PM CDT
Astronomical Twilight 5:18 AM CDT 9:15 PM CDT
Moon 10:28 AM CDT (9/2) 10:12 PM CDT (9/2)
Length of Visible Light 13h 49m
Length of Day
12h 56m
Waxing Crescent, 15% of the Moon is Illuminated
Sep 2
Waxing Crescent
Sep 5
First Quarter
Sep 13
Full
Sep 21
Last Quarter
Sep 28
New

Hourly Weather History & Observations

Time (CDT) Temp. Heat Index Dew Point Humidity Pressure Visibility Wind Dir Wind Speed Gust Speed Precip Events Conditions
12:53 AM 70.0 °F - 68.0 °F 93% 30.08 in 10.0 mi ENE 3.5 mph - N/A   Clear
1:53 AM 69.1 °F - 68.0 °F 96% 30.09 in 10.0 mi Calm Calm - N/A   Clear
2:53 AM 68.0 °F - 66.9 °F 96% 30.09 in 9.0 mi East 3.5 mph - N/A   Clear
3:53 AM 68.0 °F - 66.9 °F 96% 30.08 in 9.0 mi Calm Calm - N/A   Clear
4:53 AM 66.9 °F - 66.0 °F 97% 30.08 in 8.0 mi East 3.5 mph - N/A   Clear
5:53 AM 66.9 °F - 66.9 °F 100% 30.08 in 9.0 mi Calm Calm - N/A   Clear
6:53 AM 66.9 °F - 66.0 °F 97% 30.10 in 7.0 mi Calm Calm - N/A   Clear
7:53 AM 69.1 °F - 66.9 °F 93% 30.12 in 8.0 mi Calm Calm - N/A   Clear
8:53 AM 73.0 °F - 69.1 °F 87% 30.12 in 10.0 mi East 3.5 mph - N/A   Clear
9:53 AM 79.0 °F - 72.0 °F 79% 30.12 in 10.0 mi Calm Calm - N/A   Clear
10:53 AM 82.9 °F 88.0 °F 72.0 °F 69% 30.12 in 10.0 mi Calm Calm - N/A   Clear
11:53 AM 84.9 °F 90.7 °F 72.0 °F 65% 30.11 in 10.0 mi Calm Calm - N/A   Scattered Clouds
12:53 PM 86.0 °F 93.0 °F 73.0 °F 65% 30.09 in 10.0 mi SSE 3.5 mph - N/A   Scattered Clouds
1:53 PM 87.1 °F 92.8 °F 71.1 °F 59% 30.07 in 10.0 mi Calm Calm - N/A   Scattered Clouds
2:53 PM 90.0 °F 96.4 °F 71.1 °F 54% 30.05 in 10.0 mi Calm Calm - N/A   Partly Cloudy
3:53 PM 87.1 °F 93.6 °F 72.0 °F 61% 30.03 in 10.0 mi Calm Calm - N/A   Scattered Clouds
4:53 PM 88.0 °F 94.7 °F 72.0 °F 59% 30.02 in 10.0 mi South 3.5 mph - N/A   Partly Cloudy
5:53 PM 87.1 °F 92.8 °F 71.1 °F 59% 30.01 in 10.0 mi South 3.5 mph - N/A   Clear
6:53 PM 84.9 °F 90.7 °F 72.0 °F 65% 30.00 in 10.0 mi Variable 4.6 mph - N/A   Clear
7:53 PM 81.0 °F 85.2 °F 72.0 °F 74% 29.99 in 10.0 mi Calm Calm - N/A   Clear
8:53 PM 79.0 °F - 73.0 °F 82% 30.00 in 9.0 mi Calm Calm - N/A   Clear
9:53 PM 75.0 °F - 73.0 °F 94% 30.02 in 9.0 mi Calm Calm - N/A   Clear
10:53 PM 75.0 °F - 72.0 °F 90% 30.02 in 9.0 mi SE 3.5 mph - N/A   Clear
11:53 PM 73.9 °F - 71.1 °F 91% 30.01 in 8.0 mi SSE 4.6 mph - N/A   Clear